Flag for India Weather past 2 weeks in Vellore, Tamil Nadu, India

Now
79 °F

Passing clouds.


Feels Like: 82 °F
Forecast: 72 / 97 °F
Wind: 3 mph from West

Location: Madras / Minambakkam

Current Time: Mar 29, 2015 at 4:36:08 AM

Latest Report: Mar 29, 2015 at 3:40 AM


Visibility: 4 mi

Pressure: 29.83 "Hg

Humidity: 89%

Dew point: 75 °F

Location of VelloreLocation

Historic Weather in Vellore — Graph

°F

Vellore temperature yesterday

Maximum temperature yesterday: 93 °F (at 11:40 AM)
Minimum temperature yesterday: 77 °F (at 5:40 AM)
Average temperature yesterday: 85 °F

Past Weeks' High & Low Weather Summary

 TemperatureHumidityPressure
High99 °F (Mar 22, 12:40 PM)100% (Mar 15, 6:40 AM)30.01 "Hg (Mar 15, 6:40 AM)
Low73 °F (Mar 17, 4:40 AM)27% (Mar 21, 1:40 PM)29.74 "Hg (Mar 23, 3:40 PM)
Average84 °F72%29.88 "Hg
* Reported Mar 14 2:40 AM — Mar 29 2:40 AM, Vellore, Weather by CustomWeather, © 2015

Note: Actual official high and low records may vary slightly from our data, if they occured in-between our weather recording intervals... More about our weather records

Advertising

Vellore weather history for previous 24 hours

 ConditionsComfort  
Time TempWeatherWind HumidityBarometerVisibility
2:40 AM
Sun, Mar 29
82 °FPassing clouds.5 mph79%29.83 "Hg4 mi
1:40 AM82 °FPassing clouds.No wind79%29.83 "Hg4 mi
12:40 AM82 °FPassing clouds.8 mph79%29.86 "Hg4 mi
11:40 PM
Sat, Mar 28
84 °FPassing clouds.7 mph79%29.89 "Hg4 mi
10:40 PM84 °FPassing clouds.7 mph79%29.89 "Hg4 mi
9:40 PM84 °FPassing clouds.8 mph79%29.89 "Hg4 mi
8:40 PM84 °FPassing clouds.10 mph79%29.86 "Hg4 mi
7:40 PM84 °FPassing clouds.12 mph74%29.83 "Hg4 mi
6:40 PM86 °FPassing clouds.10 mph75%29.80 "Hg4 mi
5:40 PM86 °FPassing clouds.13 mph75%29.80 "Hg5 mi
4:40 PM90 °FSunny.13 mph63%29.80 "Hg10 mi
3:40 PM90 °FPassing clouds.9 mph63%29.77 "HgN/A
2:40 PM93 °FPassing clouds.12 mph53%29.80 "Hg6 mi
1:40 PM93 °FPassing clouds.9 mph53%29.83 "Hg4 mi
12:40 PM93 °FScattered clouds.10 mph53%29.86 "Hg4 mi
11:40 AM93 °FScattered clouds.10 mph53%29.92 "Hg4 mi
10:40 AM91 °FScattered clouds.7 mph56%29.95 "Hg4 mi
9:40 AM90 °FScattered clouds.6 mph63%29.95 "Hg4 mi
8:40 AM84 °FFog.3 mph74%29.95 "Hg2 mi
6:40 AM77 °FFog.2 mph94%29.92 "Hg1 mi
5:40 AM77 °FFog.3 mph94%29.89 "Hg2 mi
4:40 AM79 °FFog.3 mph89%29.89 "Hg3 mi
Weather by CustomWeather, © 2015

See weather overviewHow to use our weather pages